• In Österreich
  • Länderverzeichnis
  • Für 7 Tage
  • Wassertemperatur
  • Satellitenkarten
  • Wetterkarte
  • News
  • Widgets
  • user-avatar
    Anmelden

    Stündliche Wetter Constantine

    Heute, 22 September, Samstag

    Zeit Temperatur Niederschläge Wind Luftdruck Luftfeuchtigkeit
    00:00 +22°C° 0 mm 1 m/S 713 mmHg 75%
    01:00 +21°C° 0 mm 1 m/S 713 mmHg 76%
    02:00 +21°C° 0 mm 1 m/S 713 mmHg 77%
    03:00 +21°C° 0 mm 1 m/S 713 mmHg 78%
    04:00 +21°C° 0 mm 1 m/S 713 mmHg 79%
    05:00 +21°C° 0 mm 1 m/S 713 mmHg 79%
    06:00 +21°C° 0 mm 1 m/S 713 mmHg 79%
    07:00 +21°C° 0 mm 2 m/S 714 mmHg 73%
    08:00 +23°C° 0 mm 2 m/S 714 mmHg 66%
    09:00 +25°C° 0 mm 2 m/S 715 mmHg 60%
    10:00 +26°C° 0 mm 2 m/S 715 mmHg 53%
    11:00 +27°C° 0 mm 3 m/S 715 mmHg 47%
    12:00 +28°C° 0 mm 4 m/S 715 mmHg 41%
    13:00 +28°C° 0 mm 4 m/S 715 mmHg 42%
    14:00 +28°C° 0 mm 5 m/S 715 mmHg 43%
    15:00 +28°C° 0 mm 5 m/S 715 mmHg 44%
    16:00 +27°C° 0 mm 4 m/S 714 mmHg 51%
    17:00 +26°C° 0 mm 4 m/S 714 mmHg 57%
    18:00 +25°C° 0 mm 3 m/S 714 mmHg 64%
    19:00 +24°C° 0 mm 2 m/S 715 mmHg 67%
    20:00 +24°C° 0 mm 2 m/S 715 mmHg 71%
    21:00 +23°C° 0 mm 1 m/S 716 mmHg 75%
    22:00 +23°C° 0 mm 1 m/S 715 mmHg 77%
    23:00 +23°C° 0 mm 1 m/S 715 mmHg 79%

    Morgen, 23 September, Sonntag

    Zeit Temperatur Niederschläge Wind Luftdruck Luftfeuchtigkeit
    00:00 +20°C° 0 mm 0 m/S 715 mmHg 81%
    01:00 +20°C° 0 mm 0 m/S 715 mmHg 82%
    02:00 +20°C° 0 mm 0 m/S 715 mmHg 82%
    03:00 +19°C° 0 mm 0 m/S 714 mmHg 83%
    04:00 +19°C° 0 mm 0 m/S 714 mmHg 82%
    05:00 +19°C° 0 mm 0 m/S 714 mmHg 80%
    06:00 +19°C° 0 mm 0 m/S 715 mmHg 78%
    07:00 +21°C° 0 mm 0 m/S 715 mmHg 69%
    08:00 +22°C° 0 mm 0 m/S 715 mmHg 59%
    09:00 +24°C° 0 mm 0 m/S 716 mmHg 50%
    10:00 +27°C° 0 mm 1 m/S 716 mmHg 46%
    11:00 +28°C° 0 mm 1 m/S 716 mmHg 41%
    12:00 +29°C° 0 mm 2 m/S 716 mmHg 37%
    13:00 +29°C° 0 mm 2 m/S 715 mmHg 37%
    14:00 +29°C° 0 mm 2 m/S 715 mmHg 38%
    15:00 +29°C° 0 mm 3 m/S 715 mmHg 38%
    16:00 +28°C° 0 mm 3 m/S 715 mmHg 43%
    17:00 +27°C° 0 mm 2 m/S 714 mmHg 49%
    18:00 +26°C° 0 mm 2 m/S 714 mmHg 54%
    19:00 +25°C° 0 mm 2 m/S 715 mmHg 58%
    20:00 +25°C° 0 mm 1 m/S 715 mmHg 62%
    21:00 +24°C° 0 mm 1 m/S 715 mmHg 65%
    22:00 +24°C° 0 mm 1 m/S 715 mmHg 66%
    23:00 +21°C° 0 mm 0 m/S 714 mmHg 67%

    übermorgen, 24 September, Montag

    Zeit Temperatur Niederschläge Wind Luftdruck Luftfeuchtigkeit
    00:00 +21°C° 0 mm 0 m/S 714 mmHg 68%
    01:00 +21°C° 0 mm 0 m/S 714 mmHg 68%
    02:00 +20°C° 0 mm 0 m/S 714 mmHg 69%
    03:00 +20°C° 0 mm 0 m/S 713 mmHg 69%
    04:00 +20°C° 0 mm 0 m/S 713 mmHg 68%
    05:00 +20°C° 0 mm 0 m/S 713 mmHg 67%
    06:00 +20°C° 0 mm 0 m/S 714 mmHg 65%
    07:00 +24°C° 0 mm 1 m/S 714 mmHg 57%
    08:00 +25°C° 0 mm 1 m/S 714 mmHg 49%
    09:00 +27°C° 0 mm 1 m/S 715 mmHg 41%
    10:00 +28°C° 0 mm 1 m/S 715 mmHg 39%
    11:00 +29°C° 0 mm 2 m/S 715 mmHg 37%
    12:00 +30°C° 0 mm 2 m/S 715 mmHg 35%
    13:00 +30°C° 0 mm 3 m/S 714 mmHg 36%
    14:00 +30°C° 0 mm 3 m/S 714 mmHg 38%
    15:00 +30°C° 0 mm 3 m/S 713 mmHg 40%
    16:00 +28°C° 0 mm 3 m/S 713 mmHg 47%
    17:00 +27°C° 0 mm 3 m/S 713 mmHg 55%
    18:00 +26°C° 0 mm 3 m/S 713 mmHg 62%
    19:00 +25°C° 0 mm 3 m/S 714 mmHg 67%
    20:00 +24°C° 0 mm 2 m/S 714 mmHg 71%
    21:00 +24°C° 0 mm 1 m/S 714 mmHg 76%
    22:00 +23°C° 0 mm 1 m/S 714 mmHg 78%
    23:00 +23°C° 0 mm 1 m/S 714 mmHg 81%

    25 September, Dienstag

    Zeit Temperatur Niederschläge Wind Luftdruck Luftfeuchtigkeit
    00:00 +22°C° 0 mm 1 m/S 713 mmHg 83%
    01:00 +22°C° 0 mm 1 m/S 713 mmHg 84%
    02:00 +22°C° 0 mm 1 m/S 713 mmHg 85%
    03:00 +22°C° 0 mm 1 m/S 713 mmHg 86%
    04:00 +21°C° 0 mm 1 m/S 713 mmHg 86%
    05:00 +21°C° 0 mm 1 m/S 713 mmHg 86%
    06:00 +21°C° 0 mm 1 m/S 713 mmHg 86%
    07:00 +23°C° 0 mm 1 m/S 714 mmHg 77%
    08:00 +24°C° 0 mm 1 m/S 714 mmHg 68%
    09:00 +26°C° 0 mm 1 m/S 714 mmHg 59%
    10:00 +27°C° 0 mm 1 m/S 714 mmHg 53%
    11:00 +28°C° 0 mm 2 m/S 714 mmHg 48%
    12:00 +29°C° 0 mm 2 m/S 714 mmHg 43%
    13:00 +29°C° 0 mm 2 m/S 714 mmHg 44%
    14:00 +29°C° 0 mm 3 m/S 714 mmHg 44%
    15:00 +29°C° 0 mm 4 m/S 713 mmHg 45%
    16:00 +28°C° 0.4 mm 3 m/S 713 mmHg 52%
    17:00 +26°C° 0.4 mm 3 m/S 713 mmHg 59%
    18:00 +25°C° 0.4 mm 3 m/S 713 mmHg 66%
    19:00 +24°C° 0.5 mm 3 m/S 714 mmHg 68%
    20:00 +24°C° 0.5 mm 2 m/S 714 mmHg 70%
    21:00 +23°C° 0.5 mm 2 m/S 714 mmHg 73%
    22:00 +23°C° 0.8 mm 1 m/S 714 mmHg 73%
    23:00 +23°C° 0.8 mm 1 m/S 714 mmHg 74%

    26 September, Mittwoch

    Zeit Temperatur Niederschläge Wind Luftdruck Luftfeuchtigkeit
    00:00 +23°C° 0.8 mm 1 m/S 714 mmHg 74%
    01:00 +23°C° 0.1 mm 1 m/S 714 mmHg 76%
    02:00 +22°C° 0.1 mm 1 m/S 714 mmHg 77%
    03:00 +22°C° 0.1 mm 1 m/S 714 mmHg 78%
    04:00 +22°C° 0.1 mm 1 m/S 714 mmHg 79%
    05:00 +21°C° 0.1 mm 1 m/S 714 mmHg 80%
    06:00 +21°C° 0.1 mm 1 m/S 714 mmHg 81%
    07:00 +23°C° 0.1 mm 1 m/S 714 mmHg 74%
    08:00 +24°C° 0.1 mm 2 m/S 715 mmHg 68%
    09:00 +25°C° 0.1 mm 2 m/S 715 mmHg 61%
    10:00 +26°C° 0.4 mm 2 m/S 715 mmHg 56%
    11:00 +27°C° 0.4 mm 2 m/S 715 mmHg 52%
    12:00 +28°C° 0.4 mm 2 m/S 715 mmHg 47%
    13:00 +28°C° 0.1 mm 3 m/S 715 mmHg 48%
    14:00 +28°C° 0.1 mm 3 m/S 715 mmHg 48%
    15:00 +28°C° 0.1 mm 4 m/S 714 mmHg 48%
    16:00 +27°C° 0.4 mm 3 m/S 715 mmHg 53%
    17:00 +26°C° 0.4 mm 3 m/S 715 mmHg 58%
    18:00 +25°C° 0.4 mm 3 m/S 715 mmHg 63%
    19:00 +25°C° 0.3 mm 2 m/S 715 mmHg 66%
    20:00 +24°C° 0.3 mm 2 m/S 715 mmHg 68%
    21:00 +24°C° 0.3 mm 2 m/S 715 mmHg 71%
    22:00 +24°C° 0 mm 1 m/S 715 mmHg 72%
    23:00 +23°C° 0 mm 1 m/S 715 mmHg 73%

    27 September, Donnerstag

    Zeit Temperatur Niederschläge Wind Luftdruck Luftfeuchtigkeit
    00:00 +23°C° 0 mm 1 m/S 715 mmHg 74%
    01:00 +23°C° 0 mm 1 m/S 715 mmHg 75%
    02:00 +23°C° 0 mm 1 m/S 715 mmHg 76%
    03:00 +22°C° 0 mm 1 m/S 714 mmHg 77%
    04:00 +22°C° 0 mm 1 m/S 715 mmHg 76%
    05:00 +22°C° 0 mm 1 m/S 715 mmHg 76%
    06:00 +22°C° 0 mm 1 m/S 715 mmHg 76%
    07:00 +24°C° 0 mm 2 m/S 715 mmHg 68%
    08:00 +25°C° 0 mm 2 m/S 716 mmHg 61%
    09:00 +26°C° 0 mm 2 m/S 716 mmHg 53%
    10:00 +27°C° 0 mm 2 m/S 716 mmHg 49%
    11:00 +28°C° 0 mm 2 m/S 716 mmHg 44%
    12:00 +29°C° 0 mm 3 m/S 716 mmHg 40%
    13:00 +29°C° 0 mm 3 m/S 715 mmHg 40%
    14:00 +29°C° 0 mm 3 m/S 715 mmHg 40%
    15:00 +29°C° 0 mm 3 m/S 714 mmHg 40%
    16:00 +28°C° 0 mm 3 m/S 714 mmHg 45%
    17:00 +27°C° 0 mm 3 m/S 714 mmHg 49%
    18:00 +27°C° 0 mm 3 m/S 714 mmHg 53%
    19:00 +26°C° 0 mm 3 m/S 714 mmHg 57%
    20:00 +25°C° 0 mm 2 m/S 714 mmHg 60%
    21:00 +25°C° 0 mm 2 m/S 714 mmHg 64%
    22:00 +24°C° 0 mm 2 m/S 714 mmHg 65%
    23:00 +24°C° 0 mm 2 m/S 714 mmHg 66%
    Mehr zeigen